1532073601.17,61034,17.5,73996.3,9.91,9.77,9.77,0,*7C
1532073602.37,61035,17.5,73998.8,9.89,9.29,9.25,0,*78
1532073603.59,61036,17.5,74000.5,9.91,9.39,9.39,0,*7E
1532073604.8,61037,17.5,73998.8,9.91,9.49,9.47,0,*71
1532073606.03,61038,17.5,73998.3,9.89,9.35,9.29,0,*74
1532073607.21,61039,17.5,73996.0,9.91,8.69,8.45,0,*7F
1532073608.46,61040,17.5,73996.8,9.89,9.15,8.93,0,*79
1532073609.66,61041,17.5,73998.3,9.89,8.61,8.69,0,*7F
1532073610.91,61042,17.5,73998.0,9.89,9.15,9.15,0,*74
1532073612.12,61043,17.5,74000.0,9.87,9.47,9.53,0,*7E
1532073613.35,61044,17.5,73996.5,9.87,9.53,9.53,0,*7C
1532073614.53,61045,17.5,73996.0,9.87,9.47,9.47,0,*7D
1532073615.8,61046,17.5,73992.3,9.89,9.81,9.81,0,*70
1532073617.03,61047,17.5,73996.0,9.91,9.77,9.77,0,*78
1532073618.29,61048,17.5,73996.3,9.89,9.77,9.81,0,*77
1532073619.55,61049,17.5,73996.8,9.89,9.89,9.89,0,*7F
1532073620.77,61050,17.5,73996.3,9.91,9.57,9.61,0,*7B
1532073621.97,61051,17.5,73998.5,9.91,9.71,9.77,0,*79
1532073623.24,61052,17.5,73998.0,9.89,9.49,9.49,0,*75
1532073624.44,61053,17.5,73998.5,9.89,9.29,9.29,0,*74
1532073625.69,61054,17.5,73998.8,9.89,9.39,9.39,0,*73
1532073626.87,61055,17.5,73998.3,9.87,9.47,9.47,0,*7C
1532073628.12,61056,17.5,73998.0,9.89,9.57,9.57,0,*71
1532073629.33,61057,17.5,74000.8,9.89,9.67,9.67,0,*70
1532073630.54,61058,17.5,74002.5,9.89,9.71,9.67,0,*78
1532073631.76,61059,17.5,73996.0,9.89,9.29,9.35,0,*73
1532073632.96,61060,17.5,73994.8,9.89,9.21,9.21,0,*74
1532073634.17,61061,17.5,73996.3,9.87,9.35,9.43,0,*7A
1532073635.34,61062,17.5,73996.8,9.87,9.67,9.63,0,*7C
1532073636.57,61063,17.5,73998.8,9.87,9.19,9.01,0,*70
1532073637.75,61064,17.5,74002.3,9.87,9.25,9.33,0,*79
1532073639.01,61065,17.5,73998.3,9.85,9.49,9.49,0,*7D
1532073640.19,61066,17.5,73996.0,9.87,9.21,9.21,0,*7C
1532073641.39,61067,17.5,73998.3,9.87,8.89,8.87,0,*73
1532073642.62,61068,17.5,73994.3,9.83,8.93,8.93,0,*76
1532073643.82,61069,17.5,73998.8,9.83,8.45,8.51,0,*72
1532073645.04,61070,17.5,73996.3,9.83,8.75,8.75,0,*7F
1532073646.27,61071,17.5,73996.5,9.83,8.37,8.41,0,*7F
1532073647.52,61072,17.5,73998.8,9.81,8.59,8.71,0,*75
1532073648.77,61073,17.5,73998.8,9.81,9.35,9.35,0,*7E
1532073650.02,61074,17.5,73998.0,9.81,9.39,9.39,0,*79
1532073651.25,61075,17.5,73996.0,9.81,9.39,9.47,0,*71
1532073652.49,61076,17.5,73998.8,9.81,9.57,9.61,0,*7E
1532073653.72,61077,17.5,73994.8,9.81,9.57,9.47,0,*7B
1532073654.97,61078,17.5,73996.5,9.81,9.35,9.35,0,*75
1532073656.19,61079,17.5,73996.3,9.81,9.25,9.15,0,*77
1532073657.44,61080,17.5,74000.5,9.81,9.15,9.15,0,*72
1532073658.64,61081,17.5,73998.0,9.79,9.11,9.03,0,*77
1532073659.87,61082,17.5,73998.3,9.79,8.93,8.93,0,*77
1532073661.11,61083,17.5,73998.8,9.77,9.15,9.15,0,*78
1532073662.31,61084,17.5,73996.5,9.79,9.29,9.35,0,*7C
1532073663.53,61085,17.5,73998.0,9.79,9.61,9.61,0,*70
1532073664.71,61086,17.5,73998.3,9.79,9.71,9.71,0,*73
1532073665.93,61087,17.5,74000.0,9.79,9.57,9.61,0,*77
1532073667.13,61088,17.5,74002.3,9.79,9.57,9.71,0,*79
1532073668.37,61089,17.5,73998.3,9.79,9.77,9.81,0,*75
1532073669.58,61090,17.5,73996.8,9.79,9.47,9.57,0,*75
1532073670.77,61091,17.5,73998.8,9.79,9.29,9.35,0,*78
1532073672.0,61092,17.5,73996.5,9.79,9.15,9.19,0,*7A
1532073673.2,61093,17.5,73996.5,9.81,9.25,9.29,0,*7C
1532073674.45,61094,17.5,73994.8,9.81,9.19,9.11,0,*7F
1532073675.68,61095,17.5,73992.8,9.79,8.51,8.59,0,*79
1532073676.9,61096,17.5,73994.8,9.79,9.11,9.11,0,*72
1532073678.12,61097,17.5,73994.8,9.77,8.89,8.87,0,*73
1532073679.33,61098,17.5,73996.5,9.77,8.87,8.79,0,*73
1532073680.58,61099,17.5,73992.5,9.73,8.41,8.29,0,*79
1532073681.83,61100,17.5,73996.5,9.73,8.71,8.71,0,*76
1532073683.0,61101,17.5,73998.3,9.71,9.21,9.21,0,*75
1532073684.22,61102,17.5,73994.5,9.71,9.11,9.11,0,*76
1532073685.4,61103,17.5,73998.3,9.71,9.43,9.43,0,*77
1532073686.6,61104,17.5,73996.5,9.71,9.29,9.49,0,*76
1532073687.81,61105,17.5,74002.8,9.73,9.03,9.07,0,*77
1532073689.03,61106,17.5,73996.5,9.71,9.11,9.11,0,*72
1532073690.21,61107,17.5,73996.5,9.71,9.43,9.43,0,*73
1532073691.41,61108,17.5,73998.3,9.73,9.29,9.33,0,*75
1532073692.59,61109,17.5,73998.3,9.71,9.03,9.03,0,*7D
1532073693.79,61110,17.5,73998.5,9.71,8.87,8.97,0,*74
1532073694.99,61111,17.5,74002.8,9.71,9.07,9.11,0,*73
1532073696.21,61112,17.5,73998.0,9.71,9.11,9.19,0,*7F
1532073697.38,61113,17.5,73996.3,9.71,9.29,9.29,0,*76
1532073698.58,61114,17.5,74000.0,9.71,9.07,9.11,0,*76
1532073699.78,61115,17.5,73998.5,9.71,9.07,9.11,0,*77
1532073700.94,61116,17.5,74000.3,9.71,9.29,9.29,0,*73
1532073702.11,61117,17.5,74000.3,9.71,9.33,9.29,0,*79
1532073703.29,61118,17.5,73998.5,9.71,9.29,9.21,0,*75
1532073704.51,61119,17.5,73998.3,9.71,8.51,8.51,0,*7C
1532073705.67,61120,17.5,73996.8,9.71,8.65,8.65,0,*76
1532073706.85,61121,17.5,73996.8,9.67,9.03,9.07,0,*74
1532073708.03,61122,17.5,74000.0,9.67,9.25,9.25,0,*73
1532073709.29,61123,17.5,74000.0,9.69,9.19,9.19,0,*7C
1532073710.53,61124,17.5,74000.5,9.69,9.35,9.35,0,*7B
1532073711.76,61125,17.5,73998.3,9.69,9.47,9.57,0,*7B
1532073712.97,61126,17.5,73996.5,9.69,9.47,9.47,0,*79
1532073714.19,61127,17.5,73998.5,9.67,9.61,9.61,0,*76
1532073715.41,61128,17.5,73996.0,9.69,9.29,9.35,0,*7A
1532073716.63,61129,17.5,73998.3,9.69,9.47,9.39,0,*7F
1532073717.88,61130,17.5,73996.3,9.69,9.57,9.49,0,*71
1532073719.09,61131,17.5,73996.5,9.69,9.47,9.47,0,*7F
1532073720.28,61132,17.5,73998.5,9.69,9.29,9.29,0,*7C
1532073721.53,61133,17.5,74000.5,9.69,9.35,9.35,0,*7D
1532073722.76,61134,17.5,73998.8,9.69,9.47,9.49,0,*74
1532073724.01,61135,17.5,74002.5,9.69,9.61,9.61,0,*7B
1532073725.23,61136,17.5,73998.0,9.69,9.61,9.67,0,*7E
1532073726.4,61137,17.5,73998.3,9.71,9.21,9.21,0,*70
1532073727.58,61138,17.5,73996.5,9.71,9.03,9.07,0,*7B
1532073728.8,61139,17.5,74000.5,9.69,9.29,9.39,0,*76
1532073730.05,61140,17.5,74002.0,9.69,9.57,9.57,0,*79
1532073731.28,61141,17.5,73998.3,9.69,9.07,9.19,0,*77
1532073732.46,61142,17.5,73996.3,9.67,8.83,8.83,0,*75
1532073733.71,61143,17.5,73998.5,9.69,8.93,8.89,0,*71
1532073734.93,61144,17.5,73996.0,9.67,8.47,8.47,0,*73
1532073736.16,61145,17.5,73998.5,9.67,8.37,8.29,0,*7D
1532073737.36,61146,17.5,74000.0,9.65,8.01,8.01,0,*73
1532073738.56,61147,17.5,74000.5,9.65,8.01,8.01,0,*72
1532073739.79,61148,17.5,74000.3,9.63,7.77,7.77,0,*7B
1532073741.05,61149,17.5,74002.0,9.61,7.73,7.73,0,*78
1532073742.25,61150,17.5,73996.3,9.59,7.55,7.47,0,*78
1532073743.43,61151,17.5,74000.3,9.59,7.45,7.45,0,*7A
1532073744.6,61152,17.5,74002.0,9.55,7.45,7.45,0,*75
1532073745.77,61153,17.5,74002.0,9.55,7.97,8.01,0,*74
1532073746.99,61154,17.5,74000.0,9.55,7.65,7.65,0,*73
1532073748.19,61155,17.5,74002.5,9.53,7.45,7.51,0,*71
1532073749.44,61156,17.5,73998.5,9.49,7.91,7.91,0,*7C
1532073750.66,61157,17.5,73998.8,9.49,7.69,7.59,0,*7E
1532073751.84,61158,17.5,73998.8,9.47,8.01,8.05,0,*78
1532073753.04,61159,17.5,74002.5,9.45,8.45,8.45,0,*7F
1532073754.27,61160,17.5,74000.5,9.45,8.59,8.65,0,*7A
1532073755.52,61161,17.5,74000.0,9.45,8.75,8.75,0,*74
1532073756.72,61162,17.5,73996.0,9.45,8.79,8.79,0,*77
1532073757.98,61163,17.5,73998.5,9.45,8.93,9.01,0,*7C
1532073759.18,61164,17.5,73998.0,9.45,9.21,9.25,0,*75
1532073760.38,61165,17.5,73998.0,9.47,9.25,9.19,0,*7D
1532073761.61,61166,17.5,73998.8,9.47,8.97,8.93,0,*75
1532073762.86,61167,17.5,74000.8,9.45,8.89,8.89,0,*72
1532073764.04,61168,17.5,74000.5,9.47,8.69,8.69,0,*7F
1532073765.23,61169,17.5,73998.8,9.45,8.69,8.65,0,*70
1532073766.43,61170,17.5,73998.3,9.47,8.27,8.33,0,*73
1532073767.7,61171,17.5,74000.3,9.45,8.55,8.55,0,*75
1532073768.91,61172,17.5,73998.5,9.45,9.03,9.03,0,*76
1532073770.13,61173,17.5,74002.0,9.45,8.59,8.65,0,*78
1532073771.37,61174,17.5,74000.3,9.45,8.37,8.45,0,*75
1532073772.6,61175,17.5,74002.3,9.45,8.33,8.45,0,*70
1532073773.83,61176,17.5,73998.0,9.43,8.37,8.37,0,*74
1532073775.01,61177,17.5,74000.3,9.43,8.69,8.69,0,*75
1532073776.24,61178,17.5,74000.0,9.43,8.93,8.93,0,*7A
1532073777.44,61179,17.5,73998.8,9.43,9.33,9.35,0,*7D
1532073778.65,61180,17.5,74002.0,9.43,9.15,9.21,0,*7A
1532073779.83,61181,17.5,74002.5,9.43,9.21,9.21,0,*7C
1532073781.06,61182,17.5,74002.3,9.45,8.83,8.89,0,*73
1532073782.31,61183,17.5,74002.8,9.45,8.33,8.33,0,*78
1532073783.53,61184,17.5,74000.5,9.45,8.69,8.75,0,*72
1532073784.78,61185,17.5,74002.3,9.45,8.75,8.75,0,*7E
1532073785.99,61186,17.5,74000.8,9.43,8.75,8.83,0,*72
1532073787.22,61187,17.5,74002.3,9.43,8.93,8.89,0,*71
1532073788.43,61188,17.5,74002.8,9.43,9.03,9.01,0,*77
1532073789.69,61189,17.5,74000.3,9.41,9.01,9.01,0,*76
1532073790.92,61190,17.5,74002.0,9.43,8.89,8.89,0,*7C
1532073792.17,61191,17.5,74002.8,9.41,8.97,8.97,0,*7F
1532073793.4,61192,17.5,73998.5,9.43,8.93,8.89,0,*75
1532073794.61,61193,17.5,74002.5,9.43,9.03,9.15,0,*78
1532073795.83,61194,17.5,74000.8,9.43,9.15,9.11,0,*7C
1532073797.01,61195,17.5,73998.5,9.43,9.21,9.21,0,*79
1532073798.19,61196,17.5,74000.0,9.43,9.25,9.33,0,*7D
1532073799.45,61197,17.5,74002.0,9.41,9.11,9.19,0,*71
1532073800.63,61198,17.5,74000.3,9.43,9.33,9.33,0,*74
1532073801.82,61199,17.5,73998.0,9.47,9.35,9.29,0,*7C
1532073803.02,61200,17.5,74000.3,9.47,9.19,9.25,0,*7D
1532073804.25,61201,17.5,74002.5,9.45,9.33,9.35,0,*77
1532073805.5,61202,17.5,74002.0,9.45,9.11,9.11,0,*72
1532073806.73,61203,17.5,74002.5,9.47,9.35,9.35,0,*71
1532073807.98,61204,17.5,73998.8,9.45,8.93,9.01,0,*7E
1532073809.21,61205,17.5,74002.8,9.45,8.59,8.65,0,*7A
1532073810.44,61206,17.5,74000.8,9.43,8.47,8.55,0,*73
1532073811.62,61207,17.5,74002.8,9.43,8.69,8.65,0,*7D
1532073812.82,61208,17.5,74000.5,9.43,8.65,8.59,0,*71
1532073814.08,61209,17.5,74004.3,9.41,8.55,8.51,0,*79
1532073815.28,61210,17.5,74002.0,9.41,8.45,8.45,0,*75
1532073816.49,61211,17.5,73998.3,9.41,8.23,8.23,0,*74
1532073817.69,61212,17.5,74000.3,9.41,7.97,8.01,0,*77
1532073818.93,61213,17.5,74000.8,9.39,8.29,8.29,0,*79
1532073820.12,61214,17.5,74002.8,9.39,8.69,8.69,0,*7E
1532073821.37,61215,17.5,74000.8,9.39,8.97,8.93,0,*7B
1532073822.62,61216,17.5,74000.8,9.39,9.19,9.19,0,*7C
1532073823.82,61217,17.5,73998.8,9.39,9.03,9.07,0,*79
1532073825.02,61218,17.5,73996.8,9.39,9.03,9.07,0,*76
1532073826.27,61219,17.5,73998.3,9.39,9.15,9.19,0,*7F
1532073827.51,61220,17.5,73998.0,9.39,9.15,9.15,0,*79
1532073828.76,61221,17.5,73998.0,9.39,9.19,9.15,0,*74
1532073830.0,61222,17.5,73998.0,9.39,9.15,9.15,0,*7B
1532073831.22,61223,17.5,73996.0,9.39,9.19,9.25,0,*75
1532073832.41,61224,17.5,73998.5,9.39,9.29,9.29,0,*7D
1532073833.66,61225,17.5,73996.8,9.41,8.75,8.75,0,*73
1532073834.92,61226,17.5,73998.5,9.41,8.41,8.41,0,*70
1532073836.15,61227,17.5,73998.0,9.41,8.87,8.89,0,*7F
1532073837.38,61228,17.5,73996.3,9.41,9.07,9.11,0,*79
1532073838.58,61229,17.5,73998.8,9.41,9.21,9.21,0,*7F
1532073839.76,61230,17.5,73998.5,9.43,9.21,9.25,0,*71
1532073840.97,61231,17.5,73996.5,9.41,9.07,9.07,0,*76
1532073842.22,61232,17.5,73996.3,9.39,9.19,9.19,0,*7A
1532073843.47,61233,17.5,74000.0,9.39,9.15,9.19,0,*77
1532073844.67,61234,17.5,73996.3,9.39,9.03,9.03,0,*7C
1532073845.92,61235,17.5,74002.5,9.39,8.97,8.93,0,*79
1532073847.13,61236,17.5,74000.8,9.41,8.87,8.87,0,*71
1532073848.38,61237,17.5,73998.5,9.41,8.75,8.75,0,*70
1532073849.64,61238,17.5,73996.3,9.41,8.41,8.41,0,*7F
1532073850.88,61239,17.5,73998.8,9.39,8.71,8.71,0,*71
1532073852.11,61240,17.5,74002.5,9.37,8.59,8.59,0,*71
1532073853.33,61241,17.5,73998.3,9.37,8.51,8.41,0,*71
1532073854.5,61242,17.5,74002.0,9.37,8.19,8.19,0,*73
1532073855.75,61243,17.5,74002.5,9.35,7.95,7.87,0,*73
1532073856.98,61244,17.5,74000.0,9.35,8.01,7.95,0,*75
1532073858.18,61245,17.5,74002.0,9.35,8.01,8.01,0,*76
1532073859.36,61246,17.5,74000.8,9.33,8.23,8.23,0,*73
1532073860.54,61247,17.5,74002.8,9.33,8.15,8.27,0,*73
1532073861.72,61248,17.5,73998.8,9.33,8.45,8.45,0,*7D
1532073862.96,61249,17.5,74000.5,9.31,8.75,8.71,0,*7A
1532073864.18,61250,17.5,74002.3,9.31,8.75,8.69,0,*7B
1532073865.37,61251,17.5,73998.0,9.31,8.65,8.65,0,*77
1532073866.57,61252,17.5,74002.3,9.31,8.69,8.65,0,*78
1532073867.78,61253,17.5,74002.0,9.31,8.69,8.75,0,*78
1532073869.03,61254,17.5,74000.5,9.27,8.71,8.75,0,*71
1532073870.27,61255,17.5,74000.3,9.31,8.75,8.75,0,*73
1532073871.53,61256,17.5,74000.3,9.27,8.29,8.37,0,*78
1532073872.72,61257,17.5,74002.5,9.27,8.65,8.65,0,*76
1532073873.94,61258,17.5,74000.5,9.25,8.71,8.71,0,*7B
1532073875.14,61259,17.5,74000.3,9.27,8.61,8.61,0,*78
1532073876.4,61260,17.5,74002.0,9.27,7.69,7.69,0,*72
1532073877.58,61261,17.5,74002.0,9.25,8.27,8.19,0,*7C
1532073878.76,61262,17.5,74002.0,9.25,8.27,8.09,0,*7E
1532073879.94,61263,17.5,74002.8,9.25,8.15,8.15,0,*73
1532073881.17,61264,17.5,74002.8,9.25,8.59,8.59,0,*74
1532073882.37,61265,17.5,74000.5,9.27,8.65,8.65,0,*77
1532073883.6,61266,17.5,74000.8,9.23,8.59,8.61,0,*7B
1532073884.82,61267,17.5,74000.3,9.25,8.75,8.71,0,*73
1532073886.04,61268,17.5,74004.0,9.25,8.71,8.71,0,*78
1532073887.24,61269,17.5,74004.5,9.25,8.71,8.65,0,*7C
1532073888.44,61270,17.5,74002.3,9.23,8.01,8.01,0,*77
1532073889.69,61271,17.5,74000.5,9.23,7.65,7.69,0,*7A
1532073890.89,61272,17.5,74002.8,9.19,7.09,7.05,0,*70
1532073892.07,61273,17.5,74000.8,9.21,7.01,6.97,0,*78
1532073893.29,61274,17.5,74004.0,9.19,7.11,7.09,0,*73
1532073894.49,61275,17.5,74000.5,9.15,7.09,7.09,0,*77
1532073895.74,61276,17.5,74002.5,9.15,7.69,7.61,0,*7C
1532073896.94,61277,17.5,74002.0,9.13,7.65,7.59,0,*7C
1532073898.17,61278,17.5,74000.0,9.11,6.73,6.83,0,*71
1532073899.4,61279,17.5,74000.3,9.11,7.11,7.09,0,*76
1532073900.66,61280,17.5,74000.3,9.11,7.23,7.23,0,*79
1532073901.84,61281,17.5,74000.8,9.09,6.97,6.97,0,*71
1532073903.09,61282,17.5,73998.8,9.05,7.15,7.15,0,*7E
1532073904.33,61283,17.5,74000.8,9.05,7.19,7.19,0,*7F
1532073905.55,61284,17.5,74000.5,9.05,7.65,7.59,0,*77
1532073906.73,61285,17.5,74000.0,9.03,7.55,7.55,0,*7F
1532073907.97,61286,17.5,74000.5,9.05,7.15,7.19,0,*76
1532073909.15,61287,17.5,73996.5,9.03,7.55,7.45,0,*7C
1532073910.4,61288,17.5,73996.5,9.01,7.69,7.69,0,*70
1532073911.6,61289,17.5,73998.3,9.03,7.73,7.79,0,*79
1532073912.86,61290,17.5,73998.0,9.01,7.83,7.73,0,*76
1532073914.11,61291,17.5,73994.5,9.01,7.95,7.95,0,*78
1532073915.28,61292,17.5,74000.5,9.03,8.05,8.05,0,*79
1532073916.51,61293,17.5,73996.0,9.01,8.01,7.95,0,*78
1532073917.72,61294,17.5,73998.5,9.01,8.01,8.01,0,*7D
1532073918.92,61295,17.5,73998.5,9.03,8.13,8.05,0,*79
1532073920.17,61296,17.5,74002.3,9.01,7.91,7.95,0,*7B
1532073921.35,61297,17.5,73996.0,9.03,7.59,7.59,0,*7C
1532073922.52,61298,17.5,73998.3,9.03,8.05,8.05,0,*73
1532073923.75,61299,17.5,74000.5,9.01,8.27,8.33,0,*75
1532073924.98,61300,17.5,74002.5,9.01,8.15,8.13,0,*77
1532073926.18,61301,17.5,73998.5,8.99,7.73,7.59,0,*78
1532073927.41,61302,17.5,73996.5,9.01,7.61,7.59,0,*78
1532073928.62,61303,17.5,74000.5,8.99,7.79,7.77,0,*7C
1532073929.81,61304,17.5,73996.0,8.97,8.09,8.09,0,*7B
1532073930.99,61305,17.5,74000.0,8.99,8.19,8.19,0,*74
1532073932.2,61306,17.5,74000.8,9.01,8.23,8.15,0,*72
1532073933.4,61307,17.5,74000.8,8.99,8.13,8.19,0,*7C
1532073934.63,61308,17.5,74000.3,8.97,7.79,7.69,0,*76
1532073935.86,61309,17.5,74000.3,8.97,8.09,8.13,0,*7D
1532073937.05,61310,17.5,73998.3,8.97,7.45,7.41,0,*7A
1532073938.3,61311,17.5,73998.8,8.97,7.91,7.87,0,*78
1532073939.52,61312,17.5,74000.8,8.95,7.83,7.83,0,*7E
1532073940.69,61313,17.5,73996.8,8.95,7.97,8.05,0,*7B
1532073941.89,61314,17.5,73998.0,8.93,8.15,8.23,0,*7B
1532073943.08,61315,17.5,74002.0,8.95,7.97,7.87,0,*78
1532073944.28,61316,17.5,73998.3,8.93,8.05,8.05,0,*7C
1532073945.46,61317,17.5,73998.5,8.95,8.15,8.09,0,*76
1532073946.68,61318,17.5,74000.0,8.95,7.69,7.69,0,*74
1532073947.88,61319,17.5,73996.5,8.93,8.01,8.01,0,*73
1532073949.1,61320,17.5,73998.5,8.93,8.05,8.13,0,*7E
1532073950.29,61321,17.5,73998.5,8.95,8.27,8.27,0,*7E
1532073951.52,61322,17.5,73998.5,8.95,7.95,7.95,0,*7D
1532073952.74,61323,17.5,74002.5,8.93,8.27,8.29,0,*74
1532073953.95,61324,17.5,74002.0,8.93,8.27,8.15,0,*7C
1532073955.14,61325,17.5,73998.5,8.93,8.05,8.05,0,*7C
1532073956.38,61326,17.5,73996.0,8.93,7.79,7.73,0,*75
1532073957.58,61327,17.5,73998.0,8.91,7.95,8.01,0,*7E
1532073958.78,61328,17.5,74002.5,8.93,8.01,8.01,0,*71
1532073959.96,61329,17.5,73998.8,8.91,7.79,7.79,0,*72
1532073961.17,61330,17.5,74000.8,8.91,8.13,8.05,0,*7D
1532073962.34,61331,17.5,73998.8,8.91,8.05,8.01,0,*7F
1532073963.57,61332,17.5,73998.3,8.91,7.73,7.73,0,*78
1532073964.8,61333,17.5,74000.0,8.89,7.77,7.79,0,*7E
1532073966.03,61334,17.5,73998.8,8.89,7.87,7.79,0,*76
1532073967.25,61335,17.5,73996.3,8.91,7.69,7.61,0,*77
1532073968.48,61336,17.5,74000.3,8.89,7.47,7.45,0,*77
1532073969.68,61337,17.5,73996.0,8.89,7.55,7.55,0,*74
1532073970.91,61338,17.5,73998.3,8.87,6.73,6.51,0,*75
1532073972.08,61339,17.5,74000.5,8.87,7.01,6.97,0,*7A
1532073973.28,61340,17.5,74000.5,8.85,5.71,5.33,0,*7E
1532073974.54,61341,17.5,74002.5,8.85,6.87,6.87,0,*79
1532073975.73,61342,17.5,73998.3,8.81,6.83,6.83,0,*7E
1532073976.91,61343,17.5,74000.8,8.79,7.05,7.01,0,*7C
1532073978.09,61344,17.5,73996.8,8.79,6.93,6.93,0,*7F
1532073979.34,61345,17.5,73998.8,8.77,6.61,6.65,0,*74
1532073980.55,61346,17.5,74002.3,8.75,6.29,6.21,0,*79
1532073981.77,61347,17.5,74000.0,8.73,6.61,6.61,0,*76
1532073982.97,61348,17.5,74002.5,8.71,6.83,6.83,0,*7B
1532073984.16,61349,17.5,74000.0,8.71,7.05,7.05,0,*7A
1532073985.36,61350,17.5,73996.3,8.71,7.37,7.37,0,*72
1532073986.59,61351,17.5,73996.8,8.69,7.19,7.19,0,*7A
1532073987.76,61352,17.5,74002.0,8.69,7.01,7.01,0,*79
1532073988.99,61353,17.5,73998.0,8.67,7.19,7.09,0,*77
1532073990.21,61354,17.5,73998.3,8.67,7.11,7.09,0,*78
1532073991.46,61355,17.5,73998.0,8.67,6.65,6.53,0,*75
1532073992.65,61356,17.5,73998.3,8.65,5.11,5.33,0,*71
1532073993.88,61357,17.5,73998.5,8.63,6.93,6.87,0,*73
1532073995.08,61358,17.5,73998.8,8.63,7.09,7.09,0,*79
1532073996.31,61359,17.5,73998.5,8.63,7.29,7.23,0,*72
1532073997.51,61360,17.5,73996.8,8.63,7.41,7.45,0,*76
1532073998.71,61361,17.5,73998.3,8.63,7.09,7.05,0,*7F
1532073999.94,61362,17.5,73998.8,8.63,7.29,7.23,0,*7A
1532074001.17,61363,17.5,73998.8,8.63,7.65,7.55,0,*72
1532074002.43,61364,17.5,73996.5,8.63,7.77,7.73,0,*72
1532074003.69,61365,17.5,73998.8,8.63,7.73,7.65,0,*70
1532074004.93,61366,17.5,73994.0,8.63,7.87,7.83,0,*70
1532074006.14,61367,17.5,73992.0,8.65,7.61,7.55,0,*74
1532074007.34,61368,17.5,73994.8,8.63,7.45,7.45,0,*7A
1532074008.54,61369,17.5,73998.8,8.63,7.41,7.41,0,*7B
1532074009.75,61370,17.5,73994.8,8.63,7.29,7.33,0,*78
1532074010.96,61371,17.5,73996.5,8.63,6.93,6.97,0,*76
1532074012.19,61372,17.5,73998.0,8.57,4.97,4.97,0,*76
1532074013.42,61373,17.5,73998.0,8.57,6.65,6.65,0,*77
1532074014.64,61374,17.5,73996.5,8.55,6.79,6.69,0,*73
1532074015.87,61375,17.5,73998.0,8.53,6.73,6.73,0,*75
1532074017.07,61376,17.5,73996.0,8.53,7.11,7.09,0,*7F
1532074018.32,61377,17.5,73996.3,8.55,7.27,7.27,0,*71
1532074019.55,61378,17.5,73998.3,8.53,5.85,6.13,0,*74
1532074020.77,61379,17.5,73992.0,8.55,6.87,6.79,0,*7E
1532074021.96,61380,17.5,73998.3,8.49,7.37,7.29,0,*7B
1532074023.15,61381,17.5,73996.5,8.51,7.33,7.33,0,*7C
1532074024.4,61382,17.5,73998.0,8.51,7.23,7.19,0,*76
1532074025.63,61383,17.5,73994.0,8.51,7.19,7.09,0,*7F
1532074026.83,61384,17.5,73994.0,8.49,6.21,5.77,0,*70
1532074028.07,61385,17.5,73998.0,8.49,6.51,6.47,0,*76
1532074029.27,61386,17.5,73994.8,8.47,5.41,5.29,0,*72
1532074030.51,61387,17.5,73992.5,8.47,6.97,6.91,0,*7B
1532074031.69,61388,17.5,73992.3,8.45,7.05,7.01,0,*74
1532074032.86,61389,17.5,73994.0,8.45,7.05,7.01,0,*75
1532074034.09,61390,17.5,73996.0,8.45,6.57,6.53,0,*7D
1532074035.29,61391,17.5,73992.3,8.41,7.05,7.05,0,*7C
1532074036.55,61392,17.5,73990.0,8.41,6.35,6.35,0,*7F
1532074037.76,61393,17.5,73994.3,8.41,4.41,4.41,0,*7E
1532074038.98,61394,17.5,73992.5,8.39,5.89,5.81,0,*7E
1532074040.19,61395,17.5,73990.5,8.39,5.93,5.99,0,*7D
1532074041.4,61396,17.5,73994.8,8.35,6.53,6.53,0,*78
1532074042.65,61397,17.5,73994.5,8.33,6.61,6.61,0,*7F
1532074043.86,61398,17.5,73994.5,8.35,6.53,6.57,0,*72
1532074045.11,61399,17.5,73994.8,8.33,6.39,6.39,0,*71
1532074046.37,61400,17.5,73994.8,8.33,6.43,6.43,0,*76
1532074047.57,61401,17.5,73994.3,8.35,6.65,6.75,0,*70
1532074048.81,61402,17.5,73992.5,8.33,6.53,6.65,0,*71
1532074050.06,61403,17.5,73994.3,8.33,6.73,6.73,0,*75
1532074051.32,61404,17.5,73998.0,8.33,6.51,6.43,0,*71
1532074052.55,61405,17.5,73994.5,8.35,6.43,6.43,0,*75
1532074053.81,61406,17.5,73994.8,8.33,6.43,6.43,0,*70
1532074055.0,61407,17.5,73994.0,8.31,6.17,6.21,0,*76
1532074056.25,61408,17.5,73994.0,8.29,6.69,6.73,0,*7E
1532074057.41,61409,17.5,73992.5,8.31,7.01,7.01,0,*7D
1532074058.58,61410,17.5,73992.3,8.31,7.09,7.01,0,*7D
1532074059.77,61411,17.5,73992.3,8.29,7.05,7.05,0,*7D
1532074060.99,61412,17.5,73992.3,8.31,7.19,7.19,0,*77
1532074062.22,61413,17.5,73992.5,8.31,7.23,7.11,0,*77
1532074063.44,61414,17.5,73992.8,8.31,7.19,7.23,0,*78
1532074064.61,61415,17.5,73992.0,8.31,7.51,7.51,0,*70
1532074065.78,61416,17.5,73994.5,8.31,7.45,7.55,0,*72
1532074066.98,61417,17.5,73994.3,8.29,7.41,7.51,0,*7A
1532074068.18,61418,17.5,73994.3,8.33,7.45,7.45,0,*7F
1532074069.39,61419,17.5,73994.8,8.33,7.29,7.29,0,*7E
1532074070.62,61420,17.5,73992.8,8.33,7.23,7.29,0,*7E
1532074071.82,61421,17.5,73992.8,8.33,7.41,7.41,0,*75
1532074072.99,61422,17.5,73992.5,8.35,7.45,7.45,0,*70
1532074074.18,61423,17.5,73994.8,8.33,7.33,7.41,0,*72
1532074075.39,61424,17.5,73996.5,8.33,7.51,7.51,0,*70
1532074076.56,61425,17.5,73994.5,8.35,7.59,7.59,0,*77
1532074077.82,61426,17.5,73992.3,8.33,7.61,7.61,0,*72
1532074079.07,61427,17.5,73994.8,8.33,7.61,7.65,0,*77
1532074080.3,61428,17.5,73994.0,8.35,7.73,7.73,0,*7A
1532074081.5,61429,17.5,73994.5,8.35,7.83,7.79,0,*7E
1532074082.7,61430,17.5,73994.0,8.35,7.79,7.83,0,*76
1532074083.93,61431,17.5,73996.5,8.35,7.73,7.73,0,*72
1532074085.16,61432,17.5,73998.3,8.39,7.77,7.77,0,*7D
1532074086.38,61433,17.5,73994.5,8.39,7.83,7.83,0,*7C
1532074087.6,61434,17.5,73994.5,8.41,7.87,7.97,0,*75
1532074088.85,61435,17.5,73998.0,8.41,7.83,7.87,0,*71
1532074090.1,61436,17.5,73996.5,8.41,7.87,7.95,0,*75
1532074091.36,61437,17.5,73996.0,8.41,7.95,7.95,0,*77
1532074092.56,61438,17.5,73996.5,8.41,7.97,7.97,0,*78
1532074093.81,61439,17.5,73992.3,8.41,7.95,7.95,0,*79
1532074095.04,61440,17.5,73996.0,8.41,7.61,7.59,0,*7C
1532074096.27,61441,17.5,73998.8,8.47,7.47,7.55,0,*73
1532074097.48,61442,17.5,73994.5,8.45,7.59,7.65,0,*7E
1532074098.65,61443,17.5,73994.0,8.39,7.59,7.59,0,*7B
1532074099.91,61444,17.5,73996.8,8.41,7.69,7.69,0,*73
1532074101.13,61445,17.5,73998.3,8.41,7.69,7.59,0,*71
1532074102.33,61446,17.5,73992.5,8.41,7.59,7.59,0,*71
1532074103.59,61447,17.5,73996.3,8.41,7.69,7.69,0,*70
1532074104.79,61448,17.5,73998.0,8.41,7.41,7.41,0,*7F
1532074106.01,61449,17.5,73994.5,8.41,7.41,7.47,0,*78
1532074107.24,61450,17.5,73998.8,8.41,7.29,7.19,0,*75
1532074108.41,61451,17.5,73996.0,8.39,7.41,7.51,0,*79
1532074109.61,61452,17.5,73998.8,8.41,7.41,7.41,0,*74
1532074110.81,61453,17.5,73998.3,8.41,7.59,7.59,0,*75
1532074112.03,61454,17.5,73994.3,8.41,7.47,7.41,0,*74
1532074113.23,61455,17.5,73996.0,8.39,7.47,7.41,0,*7A
1532074114.43,61456,17.5,73996.8,8.39,7.59,7.61,0,*74
1532074115.69,61457,17.5,73996.0,8.41,7.69,7.69,0,*71
1532074116.91,61458,17.5,74000.8,8.39,7.69,7.69,0,*71
1532074118.17,61459,17.5,74000.5,8.41,7.61,7.73,0,*7C
1532074119.42,61460,17.5,73996.5,8.41,7.69,7.73,0,*7E
1532074120.65,61461,17.5,73996.3,8.39,7.73,7.77,0,*7F
1532074121.88,61462,17.5,73998.8,8.39,7.73,7.73,0,*78
1532074123.11,61463,17.5,73998.0,8.39,7.73,7.69,0,*72
1532074124.37,61464,17.5,74000.0,8.41,7.61,7.61,0,*71
1532074125.62,61465,17.5,73998.8,8.41,7.69,7.69,0,*70
1532074126.84,61466,17.5,73996.3,8.39,7.77,7.83,0,*77
1532074128.1,61467,17.5,73998.3,8.41,7.77,7.73,0,*76
1532074129.32,61468,17.5,74000.3,8.41,6.61,6.83,0,*71
1532074130.51,61469,17.5,73998.8,8.39,7.41,7.47,0,*75
1532074131.71,61470,17.5,73998.0,8.39,7.47,7.51,0,*7C
1532074132.91,61471,17.5,73996.8,8.39,7.59,7.47,0,*75
1532074134.13,61472,17.5,74000.5,8.39,7.69,7.69,0,*79
1532074135.36,61473,17.5,73998.5,8.35,7.73,7.73,0,*74
1532074136.57,61474,17.5,74002.3,8.35,7.79,7.73,0,*79
1532074137.77,61475,17.5,74002.5,8.35,7.47,7.55,0,*71
1532074138.95,61476,17.5,74000.0,8.35,7.59,7.59,0,*71
1532074140.17,61477,17.5,73998.5,8.33,7.61,7.55,0,*71
1532074141.4,61478,17.5,74000.3,8.35,7.65,7.65,0,*7F